CAPE
0 8 21 6 2 2 15 18 46 19 43 33 43 14 55 84 82 19 0 5 143 573 931 1176 1454 1321 551 17 0 0 0 1 4 5 5 10 4 3 2 3 2 0 0 0
1 3 13 6 0 1 2 3 2 3 7 30 42 26 5 0 3 0 51 109 36 344 1131 1282 1183 966 3 3 2 1 3 6 9 11 6 7 7 6 3 2 0 0 0 0
12 11 21 50 0 0 1 2 5 18 24 37 38 18 3 0 0 11 124 159 175 551 980 790 508 72 4 5 4 3 5 8 8 10 9 4 1 0 0 0 0 0 0 4
151 4 52 1 0 0 1 2 3 8 9 5 15 10 0 0 0 36 34 83 191 267 185 138 46 5 7 5 3 3 3 6 7 4 0 0 0 0 0 0 4 9 17 10
144 105 0 1 0 0 0 0 0 5 6 17 23 0 0 0 0 0 0 0 0 0 0 1 2 2 3 5 4 4 6 4 4 2 0 0 0 0 0 0 14 2 0 0
135 46 23 0 0 2 8 49 18 16 38 19 0 0 0 0 0 0 0 0 0 0 0 0 0 0 0 0 1 3 3 2 0 0 0 4 3 11 2 0 0 0 0 0
136 104 19 1 0 36 48 58 37 29 26 5 0 0 0 0 0 0 0 0 0 0 0 0 0 0 0 0 1 0 1 1 0 0 1 0 0 0 0 0 0 0 0 0
177 213 93 27 0 25 169 135 94 53 28 14 12 0 0 0 0 0 0 0 0 0 0 0 0 0 0 0 1 0 0 0 0 0 0 0 0 0 0 0 0 0 0 0
133 126 148 29 70 42 68 154 128 113 55 10 0 0 0 0 0 0 0 0 0 0 0 0 0 0 0 0 0 0 0 0 0 0 0 0 0 0 0 0 0 0 0 0
77 52 124 75 36 37 74 71 67 40 30 7 0 0 0 0 0 0 0 0 0 0 0 0 0 0 0 0 0 0 0 0 0 0 0 0 0 0 0 0 0 0 0 0
0 0 5 43 33 110 83 30 7 0 0 0 0 0 0 0 0 0 0 0 0 0 0 0 0 0 0 0 0 0 0 0 0 0 0 0 0 0 0 0 0 0 0 0
77 40 106 51 42 40 124 110 35 0 0 0 0 0 0 0 0 0 0 0 0 0 0 0 0 0 0 0 0 0 0 0 0 0 0 0 0 0 0 0 0 0 0 0
77 28 25 19 0 0 0 18 21 0 0 0 0 0 0 0 0 0 0 0 0 0 0 0 0 0 0 0 0 0 0 0 0 0 0 0 0 0 0 0 0 0 0 0
0 0 8 6 5 0 0 0 0 0 0 0 0 0 0 0 0 0 0 0 0 0 0 0 0 0 0 0 0 0 0 0 0 0 0 0 0 0 0 0 2 2 0 0
0 0 0 0 0 0 0 0 0 0 0 0 0 0 0 0 0 0 0 0 0 0 0 0 0 0 0 0 0 0 0 0 0 0 0 0 0 0 0 0 1 1 2 0
0 0 0 0 0 0 0 0 0 0 0 0 0 0 0 1 0 0 0 0 1 0 0 0 0 0 0 0 0 0 0 0 0 0 0 0 0 0 0 0 1 3 5 6
0 0 0 0 0 0 0 0 0 0 0 1 1 2 0 0 0 1 2 2 3 3 2 1 0 0 0 0 0 0 0 0 0 0 0 0 0 1 1 2 4 5 8 8
0 0 0 0 0 0 1 1 1 0 0 1 0 0 1 1 3 3 4 3 3 2 1 0 0 0 0 0 0 0 0 0 0 0 0 0 1 1 3 5 5 7 9 8
0 0 0 0 0 2 3 3 3 2 2 2 0 1 3 4 2 2 3 2 1 1 0 0 0 0 0 0 0 0 0 0 0 0 1 0 4 5 7 12 12 11 11 11
4 2 2 2 2 1 3 4 4 5 6 5 3 2 3 4 3 3 5 4 1 0 0 0 0 0 0 0 0 0 1 3 2 2 5 2 10 13 13 3 8 11 15 15
2 2 1 2 5 6 9 11 8 8 9 5 5 3 3 6 5 2 0 0 0 0 0 0 0 0 0 0 0 3 7 8 7 8 9 11 13 12 13 13 14 14 15 16
6 8 7 9 8 11 9 7 4 7 4 6 4 4 3 4 1 0 0 1 1 0 0 1 1 0 0 0 1 7 6 6 8 10 11 13 13 12 14 12 14 14 13 14
13 10 10 8 8 8 5 5 9 6 8 4 3 2 1 1 1 3 1 1 3 1 4 4 0 0 0 8 10 10 10 7 9 10 13 14 16 13 14 12 13 12 14 13
11 5 3 0 0 0 0 0 0 1 5 4 2 3 3 9 11 3 3 0 1 6 7 4 3 0 0 11 13 12 11 14 12 16 15 4 15 19 14 11 10 13 10 7
7 3 1 1 0 0 0 0 0 1 1 2 4 5 5 8 9 17 13 7 2 9 19 0 0 0 8 13 12 12 14 16 20 13 12 18 17 12 12 11 9 11 8 8
3 9 9 3 5 5 5 6 8 8 9 11 13 18 17 15 15 14 11 7 8 7 14 13 13 12 14 20 16 14 17 15 16 19 11 10 10 10 10 9 9 8 9 7
9 3 6 6 5 5 6 6 9 10 9 20 17 21 18 18 17 13 10 20 18 20 20 22 20 15 13 11 10 18 19 20 14 13 9 12 10 11 9 10 9 7 5 4
CIN
-0 -0 -0 -0 -0 -0 -0 -0 -0 -0 -0 -0 -2 -3 -0 -1 -3 -19 -0 -10 -7 -4 -13 -40 -42 -59 -239 -103 -0 -0 -0 -0 -0 -0 -0 -0 -0 -0 -0 -0 -0 -0 -0 -0
-0 -0 -0 -1 -0 -0 -0 -0 -0 -0 -0 -1 -0 -0 -0 -0 -35 -0 -44 -32 -36 -26 -5 -22 -64 -69 -461 -0 -0 -0 -0 -0 -0 -0 -0 -0 -0 -0 -0 -0 -0 -0 -0 -0
-0 -0 -0 -1 -0 -0 -0 -0 -0 -0 -1 -0 -1 -1 -0 -0 -0 -72 -90 -101 -91 -74 -70 -96 -141 -267 -0 -0 -0 -0 -0 -0 -0 -0 -0 -0 -0 -0 -0 -0 -0 -0 -0 -0
-2 -10 -2 -0 -0 -0 -0 -0 -0 -0 -1 -0 -0 -0 -0 -0 -0 -148 -210 -220 -168 -153 -172 -179 -148 -0 -0 -0 -0 -0 -0 -0 -0 -0 -0 -0 -0 -0 -0 -0 -0 -0 -0 -0
-2 -0 -0 -0 -0 -0 -0 -0 -0 -0 -0 -1 -1 -0 -0 -0 -0 -14 -0 -0 -0 -0 -0 -0 -0 -0 -0 -0 -0 -0 -0 -0 -0 -0 -0 -0 -0 -0 -0 -0 -0 -0 -0 -0
-11 -0 -1 -0 -0 -47 -24 -0 -37 -1 -0 -2 -0 -0 -0 -0 -0 -0 -0 -0 -0 -0 -0 -0 -0 -0 -0 -0 -0 -0 -0 -0 -0 -0 -0 -0 -0 -0 -0 -0 -0 -0 -0 -0
-11 -1 -0 -0 -0 -46 -8 -42 -2 -0 -1 -2 -0 -0 -0 -0 -0 -0 -0 -0 -0 -0 -0 -0 -0 -0 -0 -0 -0 -0 -0 -0 -0 -0 -0 -0 -0 -0 -0 -0 -0 -0 -0 -0
-2 -1 -2 -42 -0 -51 -42 -9 -9 -6 -7 -10 -21 -0 -0 -0 -0 -0 -0 -0 -0 -0 -0 -0 -0 -0 -0 -0 -0 -0 -0 -0 -0 -0 -0 -0 -0 -0 -0 -0 -0 -0 -0 -0
-2 -1 -4 -68 -25 -62 -43 -35 -7 -15 -3 -25 -0 -0 -0 -0 -0 -0 -0 -0 -0 -0 -0 -0 -0 -0 -0 -0 -0 -0 -0 -0 -0 -0 -0 -0 -0 -0 -0 -0 -0 -0 -0 -0
-1 -5 -8 -26 -52 -55 -60 -73 -27 -69 -34 -66 -0 -0 -0 -0 -0 -0 -0 -0 -0 -0 -0 -0 -0 -0 -0 -0 -0 -0 -0 -0 -0 -0 -0 -0 -0 -0 -0 -0 -0 -0 -0 -0
-1 -0 -35 -24 -92 -50 -41 -78 -110 -36 -0 -0 -0 -0 -0 -0 -0 -0 -0 -0 -0 -0 -0 -0 -0 -0 -0 -0 -0 -0 -0 -0 -0 -0 -0 -0 -0 -0 -0 -0 -0 -0 -0 -0
-29 -38 -21 -34 -88 -79 -49 -45 -109 -0 -0 -0 -0 -0 -0 -0 -0 -0 -0 -0 -0 -0 -0 -0 -0 -0 -0 -0 -0 -0 -0 -0 -0 -0 -0 -0 -0 -0 -0 -0 -0 -0 -0 -0
-23 -112 -136 -183 -0 -0 -0 -119 -127 -3 -0 -0 -0 -0 -0 -0 -0 -0 -0 -0 -0 -0 -0 -0 -0 -0 -0 -0 -0 -0 -0 -0 -0 -0 -0 -0 -0 -0 -0 -0 -0 -0 -0 -0
-0 -0 -176 -201 -105 -0 -0 -0 -0 -0 -0 -0 -0 -0 -0 -0 -0 -0 -0 -0 -0 -0 -0 -0 -0 -0 -0 -0 -0 -0 -0 -0 -0 -0 -0 -0 -0 -0 -0 -0 -0 -0 -0 -0
-0 -0 -0 -0 -0 -0 -0 -0 -0 -0 -0 -0 -0 -0 -0 -0 -0 -0 -0 -0 -0 -0 -0 -0 -0 -0 -0 -0 -0 -0 -0 -0 -0 -0 -0 -0 -0 -0 -0 -0 -0 -0 -0 -0
-0 -0 -0 -0 -0 -0 -0 -0 -0 -0 -0 -0 -0 -0 -0 -0 -0 -0 -0 -0 -0 -0 -0 -0 -0 -0 -0 -0 -0 -0 -0 -0 -0 -0 -0 -0 -0 -0 -0 -0 -0 -0 -0 -0
-0 -0 -0 -0 -0 -0 -0 -0 -0 -0 -0 -0 -0 -0 -0 -0 -0 -0 -0 -0 -0 -0 -0 -0 -0 -0 -0 -0 -0 -0 -0 -0 -0 -0 -0 -0 -0 -0 -0 -0 -0 -0 -0 -0
-0 -0 -0 -0 -0 -0 -0 -0 -0 -0 -0 -0 -0 -0 -0 -0 -0 -0 -0 -0 -0 -0 -0 -0 -0 -0 -0 -0 -0 -0 -0 -0 -0 -0 -0 -0 -0 -0 -0 -0 -0 -0 -0 -0
-0 -0 -0 -0 -0 -0 -0 -0 -0 -0 -0 -0 -0 -0 -0 -0 -0 -0 -0 -0 -0 -0 -0 -0 -0 -0 -0 -0 -0 -0 -0 -0 -0 -0 -0 -0 -0 -0 -0 -0 -0 -0 -0 -0
-0 -0 -0 -0 -0 -0 -0 -0 -0 -0 -0 -0 -0 -0 -0 -0 -0 -0 -0 -0 -0 -0 -0 -0 -0 -0 -0 -0 -0 -0 -0 -0 -0 -0 -0 -0 -0 -0 -0 -0 -0 -0 -0 -0
-0 -0 -0 -0 -0 -0 -0 -0 -0 -0 -0 -0 -0 -0 -0 -0 -0 -0 -0 -0 -0 -0 -0 -0 -0 -0 -0 -0 -0 -0 -0 -0 -0 -0 -0 -0 -0 -0 -0 -0 -0 -0 -0 -0
-0 -0 -0 -0 -0 -0 -0 -0 -0 -0 -0 -0 -0 -0 -0 -0 -0 -0 -0 -0 -0 -0 -0 -0 -0 -0 -0 -0 -0 -0 -0 -0 -0 -0 -0 -0 -0 -0 -0 -0 -0 -0 -0 -0
-0 -0 -0 -0 -0 -0 -0 -0 -0 -0 -0 -0 -0 -0 -0 -0 -0 -0 -0 -0 -0 -0 -0 -0 -0 -0 -0 -0 -0 -0 -0 -0 -0 -0 -0 -0 -0 -0 -0 -0 -0 -0 -0 -0
-0 -0 -0 -0 -0 -0 -0 -0 -0 -0 -0 -0 -0 -0 -0 -0 -0 -0 -0 -0 -0 -0 -0 -0 -0 -0 -0 -0 -0 -0 -0 -0 -0 -0 -0 -0 -0 -0 -0 -0 -0 -0 -0 -0
-0 -0 -0 -0 -0 -0 -0 -0 -0 -0 -0 -0 -0 -0 -0 -0 -0 -0 -0 -0 -0 -0 -0 -0 -0 -0 -0 -0 -0 -0 -0 -0 -0 -0 -0 -0 -0 -0 -0 -0 -0 -0 -0 -0
-0 -0 -0 -0 -0 -0 -0 -0 -0 -0 -0 -0 -0 -0 -0 -0 -0 -0 -0 -0 -0 -0 -0 -0 -0 -0 -0 -0 -0 -0 -0 -0 -0 -0 -0 -0 -0 -0 -0 -0 -0 -0 -0 -0
-0 -0 -0 -0 -0 -0 -0 -0 -0 -0 -0 -0 -0 -0 -0 -0 -0 -0 -0 -0 -0 -0 -0 -0 -0 -0 -0 -0 -0 -0 -0 -0 -0 -0 -0 -0 -0 -0 -0 -0 -0 -0 -0 -0
Wind_Speed
21 19 13 17 19 21 19 18 19 15 18 16 9 8 11 8 2 2 7 7 8 7 9 8 10 10 12 9 9 10 11 11 10 11 10 9 10 10 11 10 10 10 8 7
20 18 18 15 15 16 18 19 18 19 20 14 13 10 7 9 6 6 3 3 3 5 8 9 8 13 12 10 10 11 11 12 11 11 12 11 11 12 11 11 9 7 5 4
17 19 19 18 17 17 16 18 16 17 14 15 12 10 10 12 4 6 4 3 4 6 8 9 9 12 13 13 12 12 12 11 12 12 13 13 12 10 9 8 7 6 6 6
8 1 16 8 15 17 19 18 16 17 17 15 14 12 5 3 6 6 6 7 7 8 9 10 11 13 14 14 14 14 14 14 13 14 13 12 11 9 7 8 8 5 7 5
8 12 14 17 9 9 13 16 16 18 18 15 11 3 7 5 5 8 9 10 10 11 12 13 13 14 15 14 14 15 14 13 13 13 12 10 8 8 6 6 7 3 2 1
6 15 19 13 13 10 13 13 15 16 12 11 3 5 9 14 12 13 12 12 13 14 14 13 13 13 14 14 14 14 13 13 13 11 11 8 8 8 5 3 2 0 1 2
11 9 8 13 13 10 14 9 12 9 7 7 9 5 12 15 14 14 13 14 14 13 13 13 13 13 14 14 14 14 14 12 10 9 7 7 6 5 4 3 2 1 1 3
8 8 12 10 9 11 12 12 6 7 7 7 8 12 14 15 15 15 16 15 14 13 13 13 14 13 14 14 13 13 12 10 9 8 5 5 5 4 3 2 0 1 1 3
7 5 7 14 10 14 6 7 7 7 7 8 14 14 16 16 16 16 16 14 13 14 14 13 13 12 14 13 13 12 11 10 9 7 6 4 4 3 1 1 1 1 2 3
11 6 14 9 11 10 6 7 6 4 7 10 14 14 17 17 17 16 15 15 14 15 15 13 12 12 12 12 11 11 10 9 7 5 5 3 2 2 2 1 1 1 2 3
18 19 19 13 10 11 11 9 9 8 8 10 13 16 17 17 17 15 15 15 15 14 13 13 12 11 10 10 11 10 9 8 6 5 3 4 4 5 2 6 5 4 4 4
8 9 8 14 5 7 10 11 9 9 10 12 15 17 18 16 15 15 15 15 14 15 14 13 12 11 10 9 9 9 8 6 4 4 3 1 1 5 6 8 7 5 5 4
12 3 5 3 3 5 6 7 6 9 11 11 13 14 16 14 16 14 15 15 15 15 14 13 12 11 9 7 6 7 7 7 5 3 3 2 1 1 3 6 7 9 7 3
3 3 7 5 2 3 3 2 1 5 6 8 11 14 14 13 15 16 15 14 15 15 14 13 13 11 9 9 9 8 7 6 4 3 3 1 2 3 3 4 4 3 9 3
6 5 6 1 1 2 3 3 5 6 5 8 10 13 14 16 16 15 15 15 15 15 14 13 12 11 9 7 7 7 4 4 3 3 3 2 2 3 3 4 5 6 5 4
5 3 3 1 3 4 3 5 6 8 9 10 11 12 14 14 16 16 15 15 14 12 13 11 11 9 6 6 6 6 6 5 4 1 0 1 2 3 4 4 5 6 5 6
6 4 2 3 5 5 6 7 7 9 11 12 13 13 17 17 18 15 14 13 12 13 11 10 9 7 6 5 4 3 2 4 3 2 2 3 3 4 4 4 5 6 6 5
6 6 6 7 8 9 11 12 12 13 15 18 19 18 15 12 13 13 13 13 12 11 10 9 7 7 6 6 5 4 2 2 2 2 3 3 4 5 4 5 6 7 7 7
12 15 14 15 13 15 14 14 14 15 15 15 16 15 15 13 13 13 12 11 10 10 8 7 7 6 7 7 4 3 3 3 3 3 3 3 5 4 5 6 6 7 8 7
18 17 17 16 16 14 14 13 15 15 14 16 16 14 13 11 11 11 9 9 7 7 8 7 6 6 5 5 5 3 3 4 4 4 4 4 6 5 7 6 6 7 7 8
15 17 18 16 16 15 14 13 14 16 15 13 14 14 13 12 10 9 9 7 8 7 8 5 5 4 4 4 4 3 4 4 5 5 5 6 6 7 7 7 7 7 8 8
15 16 16 16 17 18 16 16 16 14 15 14 13 12 12 11 9 10 10 8 6 5 4 4 5 6 4 6 3 4 5 6 6 6 6 6 7 7 7 7 7 7 8 8
15 17 17 16 17 19 18 16 14 14 14 13 11 11 9 7 5 4 6 6 5 3 3 6 5 3 4 5 4 5 6 6 6 6 7 7 7 7 7 8 8 8 8 8
17 17 18 17 16 17 19 16 15 15 13 13 11 8 6 6 7 6 7 8 7 4 6 5 4 4 6 4 4 5 6 7 6 6 7 8 7 7 7 8 8 8 8 9
17 17 17 15 15 13 15 14 13 12 12 12 10 9 9 8 7 6 6 5 5 5 4 5 3 4 5 5 6 6 6 7 7 7 8 7 7 8 8 8 8 9 9 9
16 13 13 16 12 10 10 9 9 8 7 8 7 7 7 6 5 5 5 5 5 5 5 5 5 5 7 7 8 8 7 7 7 7 7 8 9 9 9 9 8 9 9 9
14 14 12 12 11 11 10 10 9 9 8 7 7 7 6 6 5 5 4 5 6 5 6 6 6 6 6 6 8 8 8 7 8 7 8 8 8 8 9 8 9 9 9 9
Wind_Direction
230 243 234 214 214 226 233 241 245 253 259 271 268 303 303 342 276 243 231 225 223 211 158 149 142 141 109 106 104 107 104 106 110 110 110 113 112 112 112 119 124 129 138 151
236 233 242 241 237 236 241 235 247 250 253 269 288 280 257 281 269 251 272 282 245 206 151 137 128 116 111 108 109 111 111 112 116 117 117 115 115 121 122 124 130 130 125 156
230 234 235 238 238 250 247 246 242 252 268 267 272 282 271 262 202 257 181 170 166 139 130 136 128 123 125 124 117 114 118 124 123 122 119 120 122 122 124 119 126 151 182 200
207 252 230 235 234 241 243 253 245 245 257 270 285 282 348 311 248 187 162 139 122 120 124 128 129 121 128 127 130 132 129 123 126 124 124 129 128 125 131 160 178 199 211 197
208 220 244 234 199 218 239 250 254 259 263 269 290 79 217 219 226 156 147 135 131 129 127 129 132 133 130 132 130 128 127 127 127 129 129 129 135 153 167 191 202 164 146 269
181 232 237 236 237 214 255 254 256 267 266 277 153 254 302 153 146 142 148 142 139 136 134 132 128 129 131 130 124 124 127 128 128 133 143 147 169 180 139 128 135 116 19 326
217 238 245 224 221 166 222 242 260 261 273 250 226 269 125 145 155 155 150 144 138 138 136 131 134 135 129 131 129 130 129 129 130 154 143 116 116 125 133 125 82 103 251 344
229 237 232 129 125 190 215 251 260 243 263 236 140 138 146 155 156 152 150 145 145 137 132 137 141 140 136 129 129 130 129 129 129 115 121 126 136 132 144 124 261 280 43 297
219 219 265 181 220 219 277 304 263 274 246 192 157 168 167 163 163 160 155 151 147 140 140 144 142 142 133 125 134 138 132 124 120 120 116 111 119 113 173 39 346 22 295 304
256 264 246 236 248 263 283 253 278 263 252 200 179 178 172 168 167 163 159 154 149 145 145 141 136 129 133 134 135 132 127 123 116 122 109 92 115 65 42 20 358 312 308 317
252 263 259 245 260 263 250 233 241 216 228 203 181 182 177 174 168 164 157 153 152 147 142 134 129 128 132 133 133 130 128 128 123 120 116 119 79 29 66 65 31 350 19 339
238 255 248 257 11 350 254 244 228 245 228 190 191 184 178 172 167 161 156 152 148 142 140 133 128 123 124 129 129 134 131 115 95 115 102 43 97 146 89 96 112 99 81 21
255 340 316 336 316 342 311 287 258 238 234 205 185 177 180 165 161 149 151 144 143 140 133 132 124 112 92 81 94 106 112 113 111 106 94 55 344 309 282 170 187 173 170 186
202 275 264 221 350 3 348 20 16 229 222 186 176 161 163 147 137 147 143 139 131 129 127 118 108 97 91 91 90 81 83 32 88 82 71 16 2 339 312 311 304 282 191 218
218 221 284 44 185 65 82 117 132 123 133 137 139 145 150 147 147 137 124 123 125 116 109 106 97 86 78 77 80 81 69 61 55 70 63 14 325 306 295 293 294 294 296 274
154 208 177 167 94 92 116 125 123 129 140 136 137 134 132 133 111 113 116 113 121 102 86 85 86 75 68 74 89 103 85 53 6 61 116 305 303 296 292 297 297 293 299 309
169 174 155 148 124 120 109 105 122 123 119 118 124 115 97 97 87 87 88 91 96 95 94 95 92 80 64 56 59 68 54 100 2 293 332 336 315 297 305 300 296 297 301 322
77 77 78 105 116 111 98 87 88 86 83 77 82 84 87 92 101 100 98 96 91 88 88 91 93 84 69 54 47 46 36 12 352 336 322 303 327 306 306 300 296 297 306 307
81 80 78 77 79 89 94 94 93 95 96 95 96 99 102 105 117 114 112 105 105 106 104 104 103 94 79 48 16 45 26 353 320 304 308 306 261 289 296 293 304 306 302 303
82 82 82 85 82 93 96 95 98 95 98 103 102 100 99 100 103 106 102 86 85 106 115 116 103 86 81 60 355 35 354 323 315 311 305 322 292 310 296 290 291 295 303 304
88 86 86 86 87 86 88 94 97 97 98 96 98 97 99 99 99 112 113 97 103 101 99 94 63 70 74 354 288 355 321 314 306 307 308 305 301 289 301 300 303 305 304 310
87 89 91 94 91 87 82 86 85 85 86 85 89 96 100 96 87 69 45 101 110 132 110 97 77 40 33 321 328 324 325 319 318 309 301 300 302 304 302 305 304 304 310 305
86 90 89 89 90 88 83 76 77 84 88 91 95 94 86 81 83 101 102 95 117 79 91 72 80 48 354 297 339 323 315 314 303 306 304 302 302 305 303 304 305 306 300 308
92 92 94 94 94 89 87 88 88 87 85 83 70 57 80 94 82 74 76 81 84 67 60 64 58 10 329 317 319 320 315 313 312 308 316 311 296 296 300 305 303 301 306 304
91 91 90 91 89 88 94 95 93 89 87 84 78 71 60 39 56 70 84 89 62 5 76 84 25 351 307 327 323 323 317 314 321 323 302 301 310 305 303 305 306 307 313 303
79 74 72 69 70 73 73 73 73 66 80 85 69 65 65 63 71 75 71 51 42 15 13 352 8 336 330 337 339 322 317 317 315 319 325 312 312 310 308 309 308 306 307 309
80 82 82 76 66 62 59 60 67 58 43 52 69 52 48 51 61 50 28 29 10 0 355 355 344 355 334 347 319 325 327 320 324 329 319 306 311 311 312 313 313 314 311 306